| time (UTC) | temp F | wind direction | speed MPH | gust MPH | rain 1hr in | rain 24hr in | rain mn in | humidity % | barometer mb |
| 20260507113958 | 62 | 42 | 0.0 | 3.0 | 0.00 | 0.00 | 0.00 | 79 | 1013.4 |
| 20260507112959 | 62 | 63 | 3.0 | 3.0 | 0.00 | 0.00 | 0.00 | 80 | 1013.5 |
| 20260507103958 | 63 | 196 | 4.0 | 7.0 | 0.00 | 0.00 | 0.00 | 79 | 1013.5 |
| 20260507102958 | 63 | 233 | 1.0 | 16.0 | 0.00 | 0.00 | 0.00 | 78 | 1013.5 |
| 20260507101958 | 63 | 179 | 1.0 | 6.0 | 0.00 | 0.00 | 0.00 | 76 | 1013.4 |
| 20260507100958 | 63 | 348 | 3.0 | 9.0 | 0.00 | 0.00 | 0.00 | 76 | 1013.4 |
| 20260507095959 | 64 | 0 | 2.0 | 0.0 | 0.00 | 0.00 | 0.00 | 75 | 1013.3 |
| 20260507094958 | 65 | 185 | 2.0 | 7.0 | 0.00 | 0.00 | 0.00 | 72 | 1013.3 |
| 20260507085959 | 63 | 244 | 4.0 | 10.0 | 0.00 | 0.00 | 0.00 | 74 | 1013.2 |
| 20260507083958 | 63 | 240 | 4.0 | 11.0 | 0.00 | 0.00 | 0.00 | 77 | 1013.0 |
| 20260507083001 | 63 | 231 | 1.0 | 7.0 | 0.00 | 0.00 | 0.00 | 77 | 1012.9 |
| 20260507082000 | 64 | 228 | 1.0 | 3.0 | 0.00 | 0.00 | 0.00 | 74 | 1012.8 |
| 20260507081001 | 64 | 236 | 2.0 | 5.0 | 0.00 | 0.00 | 0.00 | 73 | 1012.6 |
| 20260507075958 | 64 | 190 | 1.0 | 9.0 | 0.00 | 0.00 | 0.00 | 71 | 1012.5 |
| 20260507074958 | 64 | 86 | 3.0 | 7.0 | 0.00 | 0.00 | 0.00 | 70 | 1012.5 |
| 20260507074007 | 63 | 80 | 6.0 | 9.0 | 0.00 | 0.00 | 0.00 | 70 | 1012.5 |
| 20260507072958 | 64 | 80 | 5.0 | 11.0 | 0.00 | 0.00 | 0.00 | 71 | 1012.5 |
| 20260507072001 | 63 | 63 | 8.0 | 12.0 | 0.00 | 0.00 | 0.00 | 72 | 1012.5 |
| 20260507070958 | 63 | 64 | 8.0 | 14.0 | 0.00 | 0.00 | 0.00 | 72 | 1012.5 |
| 20260507064958 | 62 | 76 | 7.0 | 12.0 | 0.00 | 0.08 | 0.00 | 73 | 1012.5 |
| 20260507063958 | 62 | 90 | 6.0 | 14.0 | 0.00 | 0.13 | 0.00 | 73 | 1012.6 |
| 20260507062958 | 62 | 84 | 4.0 | 6.0 | 0.00 | 0.15 | 0.00 | 73 | 1012.4 |
| 20260507061959 | 62 | 83 | 4.0 | 6.0 | 0.00 | 0.15 | 0.00 | 74 | 1012.4 |
| 20260507060958 | 61 | 73 | 0.0 | 5.0 | 0.00 | 0.15 | 0.00 | 77 | 1012.3 |
| 20260507055958 | 60 | 0 | 0.0 | 0.0 | 0.00 | 0.15 | 0.00 | 81 | 1012.1 |
| 20260507054958 | 59 | 0 | 0.0 | 0.0 | 0.00 | 0.15 | 0.00 | 83 | 1012.2 |
| 20260507053958 | 58 | 0 | 0.0 | 0.0 | 0.00 | 0.15 | 0.00 | 86 | 1012.3 |
| 20260507052958 | 57 | 0 | 0.0 | 0.0 | 0.00 | 0.15 | 0.00 | 87 | 1012.1 |
| 20260507051958 | 56 | 0 | 0.0 | 0.0 | 0.00 | 0.15 | 0.00 | 88 | 1012.2 |
| 20260507051001 | 56 | 0 | 0.0 | 0.0 | 0.00 | 0.15 | 0.00 | 88 | 1012.0 |
| 20260507045958 | 57 | 0 | 0.0 | 0.0 | 0.00 | 0.15 | 0.00 | 88 | 1011.7 |
| 20260507044958 | 57 | 0 | 0.0 | 0.0 | 0.00 | 0.15 | 0.00 | 87 | 1011.6 |
| 20260507042958 | 58 | 0 | 0.0 | 0.0 | 0.00 | 0.16 | 0.00 | 85 | 1011.6 |
| 20260507041958 | 58 | 0 | 0.0 | 0.0 | 0.00 | 0.16 | 0.00 | 84 | 1011.5 |
| 20260507041000 | 58 | 0 | 0.0 | 0.0 | 0.00 | 0.20 | 0.00 | 83 | 1011.4 |
| 20260507033958 | 59 | 229 | 0.0 | 3.0 | 0.00 | 0.23 | 0.00 | 80 | 1011.4 |
| 20260507032959 | 60 | 0 | 0.0 | 0.0 | 0.00 | 0.23 | 0.00 | 80 | 1011.3 |
| 20260507031959 | 59 | 0 | 0.0 | 0.0 | 0.00 | 0.23 | 0.00 | 81 | 1011.3 |
| 20260507030958 | 60 | 0 | 0.0 | 0.0 | 0.00 | 0.23 | 0.00 | 79 | 1011.3 |
| 20260507025958 | 60 | 0 | 0.0 | 0.0 | 0.00 | 0.23 | 0.00 | 79 | 1011.3 |
| 20260507024958 | 60 | 87 | 1.0 | 4.0 | 0.00 | 0.23 | 0.00 | 79 | 1011.2 |
| 20260507023959 | 60 | 125 | 2.0 | 4.0 | 0.00 | 0.24 | 0.00 | 78 | 1011.3 |
| 20260507022958 | 60 | 128 | 1.0 | 4.0 | 0.00 | 0.24 | 0.00 | 78 | 1011.3 |
| 20260507020958 | 60 | 135 | 0.0 | 4.0 | 0.00 | 0.26 | 0.00 | 78 | 1011.2 |
| 20260507015958 | 60 | 113 | 0.0 | 1.0 | 0.00 | 0.29 | 0.00 | 78 | 1011.2 |
| 20260507014958 | 61 | 126 | 0.0 | 3.0 | 0.00 | 0.33 | 0.00 | 78 | 1011.2 |
| 20260507013958 | 61 | 0 | 0.0 | 0.0 | 0.00 | 0.39 | 0.00 | 78 | 1011.0 |
| 20260507012958 | 61 | 215 | 0.0 | 4.0 | 0.00 | 0.54 | 0.00 | 78 | 1011.1 |
| 20260507011959 | 61 | 0 | 0.0 | 0.0 | 0.00 | 0.72 | 0.00 | 78 | 1011.2 |
| 20260507010959 | 61 | 140 | 1.0 | 1.0 | 0.00 | 0.77 | 0.00 | 78 | 1011.3 |
| 20260507005958 | 61 | 221 | 1.0 | 1.0 | 0.00 | 0.79 | 0.00 | 79 | 1011.3 |
| 20260507004958 | 61 | 238 | 1.0 | 6.0 | 0.00 | 0.80 | 0.00 | 78 | 1011.3 |
| 20260507002959 | 61 | 0 | 0.0 | 0.0 | 0.00 | 0.83 | 0.00 | 78 | 1011.3 |
| 20260507001959 | 61 | 167 | 1.0 | 3.0 | 0.00 | 0.84 | 0.00 | 78 | 1011.2 |
| 20260507000958 | 61 | 194 | 2.0 | 5.0 | 0.00 | 0.87 | 0.00 | 78 | 1011.2 |
| 20260506234958 | 61 | 0 | 1.0 | 0.0 | 0.00 | 0.87 | 0.00 | 77 | 1011.3 |
| 20260506233959 | 61 | 122 | 1.0 | 4.0 | 0.00 | 0.87 | 0.00 | 77 | 1011.3 |
| 20260506233002 | 61 | 0 | 1.0 | 0.0 | 0.00 | 0.87 | 0.00 | 76 | 1011.3 |
| 20260506225008 | 61 | 208 | 2.0 | 7.0 | 0.00 | 0.87 | 0.00 | 77 | 1011.3 |
| 20260506224002 | 62 | 207 | 0.0 | 4.0 | 0.00 | 0.87 | 0.00 | 76 | 1011.4 |
| 20260506222958 | 62 | 144 | 1.0 | 2.0 | 0.00 | 0.87 | 0.00 | 77 | 1011.3 |
| 20260506220959 | 61 | 169 | 1.0 | 1.0 | 0.00 | 1.02 | 0.00 | 77 | 1011.3 |
| 20260506220003 | 61 | 164 | 1.0 | 2.0 | 0.00 | 1.02 | 0.00 | 77 | 1011.4 |
| 20260506214959 | 61 | 142 | 2.0 | 6.0 | 0.00 | 1.02 | 1.02 | 77 | 1011.4 |
| 20260506213959 | 61 | 131 | 2.0 | 2.0 | 0.00 | 1.02 | 1.02 | 77 | 1011.4 |
| 20260506210958 | 61 | 170 | 1.0 | 2.0 | 0.00 | 1.02 | 1.02 | 77 | 1011.3 |
| 20260506205958 | 61 | 184 | 1.0 | 4.0 | 0.00 | 1.02 | 1.02 | 77 | 1011.2 |
| 20260506205002 | 61 | 0 | 1.0 | 0.0 | 0.00 | 1.02 | 1.02 | 77 | 1011.3 |
| 20260506203958 | 61 | 0 | 0.0 | 0.0 | 0.00 | 1.02 | 1.02 | 77 | 1011.2 |
| 20260506202959 | 61 | 0 | 0.0 | 0.0 | 0.00 | 1.02 | 1.02 | 78 | 1011.2 |
| 20260506201959 | 61 | 210 | 0.0 | 3.0 | 0.00 | 1.02 | 1.02 | 78 | 1011.1 |
| 20260506200958 | 61 | 89 | 0.0 | 4.0 | 0.00 | 1.02 | 1.02 | 78 | 1011.1 |
| 20260506200008 | 61 | 0 | 1.0 | 0.0 | 0.00 | 1.02 | 1.02 | 78 | 1010.9 |
| 20260506194959 | 62 | 0 | 1.0 | 0.0 | 0.00 | 1.02 | 1.02 | 78 | 1010.7 |
| 20260506193959 | 62 | 163 | 3.0 | 5.0 | 0.00 | 1.02 | 1.02 | 78 | 1010.5 |
| 20260506193002 | 62 | 168 | 6.0 | 11.0 | 0.00 | 1.02 | 1.02 | 78 | 1010.5 |
| 20260506191958 | 62 | 168 | 2.0 | 10.0 | 0.00 | 1.02 | 1.02 | 79 | 1010.3 |
| 20260506185959 | 62 | 208 | 2.0 | 1.0 | 0.00 | 1.02 | 1.02 | 80 | 1010.0 |
| 20260506184000 | 62 | 139 | 2.0 | 5.0 | 0.00 | 1.02 | 1.02 | 79 | 1009.8 |
| 20260506183000 | 62 | 170 | 3.0 | 16.0 | 0.00 | 1.02 | 1.02 | 79 | 1009.7 |
| 20260506182005 | 62 | 158 | 1.0 | 2.0 | 0.00 | 1.02 | 1.02 | 79 | 1009.6 |
| 20260506180003 | 62 | 98 | 2.0 | 4.0 | 0.00 | 1.02 | 1.02 | 78 | 1009.3 |
| 20260506174959 | 62 | 122 | 2.0 | 9.0 | 0.00 | 1.02 | 1.02 | 78 | 1009.2 |
| 20260506173002 | 62 | 158 | 2.0 | 7.0 | 0.00 | 1.02 | 1.02 | 78 | 1009.3 |
| 20260506171000 | 62 | 185 | 3.0 | 8.0 | 0.00 | 1.02 | 1.02 | 79 | 1009.1 |
| 20260506165959 | 62 | 147 | 3.0 | 7.0 | 0.00 | 1.02 | 1.02 | 78 | 1009.1 |
| 20260506162958 | 63 | 216 | 0.0 | 1.0 | 0.00 | 1.02 | 1.02 | 78 | 1009.1 |
| 20260506162008 | 63 | 149 | 2.0 | 3.0 | 0.00 | 1.02 | 1.02 | 78 | 1009.0 |
| 20260506160003 | 63 | 236 | 3.0 | 11.0 | 0.00 | 1.02 | 1.02 | 77 | 1008.9 |
| 20260506155006 | 64 | 139 | 3.0 | 12.0 | 0.00 | 1.02 | 1.02 | 76 | 1008.9 |
| 20260506154007 | 64 | 188 | 7.0 | 7.0 | 0.00 | 1.02 | 1.02 | 77 | 1008.8 |
| 20260506151959 | 65 | 164 | 2.0 | 8.0 | 0.00 | 1.02 | 1.02 | 76 | 1008.6 |
| 20260506151002 | 65 | 222 | 5.0 | 9.0 | 0.00 | 1.02 | 1.02 | 75 | 1008.8 |
| 20260506150017 | 65 | 195 | 3.0 | 5.0 | 0.00 | 1.02 | 1.02 | 76 | 1008.8 |
| 20260506145021 | 65 | 214 | 2.0 | 5.0 | 0.00 | 1.02 | 1.02 | 75 | 1008.7 |
| 20260506144018 | 65 | 117 | 4.0 | 4.0 | 0.00 | 1.02 | 1.02 | 76 | 1008.7 |
| 20260506140959 | 66 | 203 | 6.0 | 9.0 | 0.00 | 1.02 | 1.02 | 74 | 1008.7 |
| 20260506140001 | 65 | 207 | 6.0 | 9.0 | 0.00 | 1.02 | 1.02 | 74 | 1008.6 |
| 20260506134959 | 65 | 225 | 8.0 | 14.0 | 0.00 | 1.02 | 1.02 | 73 | 1008.8 |
| 20260506133000 | 65 | 205 | 7.0 | 9.0 | 0.00 | 1.02 | 1.02 | 73 | 1008.9 |
| 20260506132000 | 65 | 197 | 7.0 | 17.0 | 0.00 | 1.02 | 1.02 | 76 | 1008.9 |
| 20260506131008 | 65 | 229 | 5.0 | 17.0 | 0.00 | 1.02 | 1.02 | 77 | 1008.8 |
| 20260506124959 | 65 | 206 | 5.0 | 16.0 | 0.00 | 1.02 | 1.02 | 77 | 1008.7 |
| 20260506124000 | 65 | 187 | 3.0 | 11.0 | 0.00 | 1.02 | 1.02 | 79 | 1008.7 |
| 20260506122959 | 65 | 222 | 2.0 | 6.0 | 0.00 | 1.02 | 1.02 | 80 | 1008.7 |
| 20260506120000 | 64 | 189 | 4.0 | 15.0 | 0.00 | 1.02 | 1.02 | 82 | 1008.6 |
| 20260506114959 | 64 | 197 | 4.0 | 12.0 | 0.00 | 1.02 | 1.02 | 82 | 1008.6 |